Location: Gombori
(14.9797°N, 2.9419°W)
Time: 23:09:53
(UTC+00:00)

CZ-4 R/B - Pass Details

Date: 03 December 2021
Orbit: 531 x 595 km, 97.8° (Epoch: 22 January)

Event Time Altitude Azimuth Distance (km) Brightness Sun altitude
Rises 19:16:39 0° 166° (SSE) 2,821 5.0 -22.6°
Reaches altitude 10° 19:18:49 10° 165° (SSE) 1,919 4.1 -23.1°
Enters shadow 19:21:34 40° 160° (SSE) 868 2.2 -23.8°
